www.pogodaiklimat.ru

Погода и климат >> Архив погоды >> Канада >> Chapleau A


ПОГОДА в Chapleau A

  • Прогноз погоды в Chapleau A
  • Монитор погоды в Chapleau A
  • Климат города

АРХИВ ПОГОДЫ в Chapleau A

Время (UTC), дата Ветер
(напр.,м/с)
 
Видим.   Явления Облачность Т
(С)
Тd
(С)
f
(%)
Тe
(С)
Тes
(С)
Комфортность P
(гПа)
Po
(гПа)
Тmin
(С)
Tmax
(С)
R
(мм)
R24
(мм)
S
(см)
18 12.09 Ю 4 24 км {туман} ясно +23.4 +8.9 40 +25 +32 комфорт 1015.2 961.9
21 12.09 З 3 24 км ясно +24.4 +7.5 34 +25 +29 комфорт 1013.7 960.5
00 13.09 ЮЗ 3 24 км ясно +18.8 +8.9 53 +20 +20 1013.5 960.0 +25.1
12 13.09 ЮЗ 3 24 км 1/0
[Ac trans]
+10.3 +7.0 80 +8 +8 1010.8 957.4 0.0
15 13.09 Ю 5 24 км ясно +20.5 +9.6 50 +22 +26 комфорт 1009.9 956.7
18 13.09 ЮЗ 5 24 км 1/0
[Ci fib]
+23.6 +8.9 39 +24 +30 комфорт 1009.0 955.9
21 13.09 ЮЗ 3 24 км 9/9 1500 м
[]
+23.8 +11.3 45 +25 +26 комфорт 1008.5 955.4
00 14.09 ЮЗ 2 24 км 9/9 1500 м
[Sc]
+20.1 +13.6 66 +23 +23 комфорт 1009.1 955.9 +25.4
12 14.09 С 1 24 км 9/9 600 м
[Sc]
+11.9 +11.5 97 +12 +12 1012.0 958.7
15 14.09 ЮВ 2 24 км 4/4 1500 м
[]
+17.1 +13.5 79 +18 +22 1012.5 959.1
18 14.09 ЮВ 2 24 км 8/8 1000 м
[St]
+22.2 +14.9 63 +26 +28 душно 1011.9 958.8
21 14.09 ЮЗ 2 24 км 8/0
[]
+22.6 +12.7 54 +25 +28 комфорт 1011.8 958.7
12 15.09 З 2 24 км 10/4 1000 м
[Sc Cs]
+14.6 +13.8 95 +14 +15 1015.6 962.1
15 15.09 Ю 1 24 км 10/10 1000 м
[]
+16.2 +15.3 94 +17 +17 1016.7 963.1
18 15.09 ЮЗ 4 24 км {дождь} 10/10 300 м
[Sc]
+18.6 +16.7 89 +20 +20 1017.3 963.7 2
21 15.09 СЗ 1 24 км 10/10 300 м
[]
+19.5 +17.6 89 +23 +23 комфорт 1018.0 964.4
00 16.09 С 3 24 км 10/10 100 м
[Sc]
+17.3 +16.5 95 +17 +17 1019.3 965.6 +20.2
12 16.09 400 м в посл. час туман н/о +13.6 +13.5 99 +14 +14 1019.2 965.5 0.4
15 16.09 Ю 5 24 км 4/0
[]
+20.4 +17.3 82 +24 +26 комфорт 1018.8 965.1
18 16.09 Ю 5 24 км 5/0
[Ac trans]
+23.9 +17.4 67 +28 +32 душно 1017.7 964.2
21 16.09 ЮЗ 7 24 км 5/5 1500 м
[]
+27.2 +15.4 48 +30 +31 душно 1016.6 963.4
00 17.09 ЮЗ 2 24 км 4/0
[Ac trans]
+20.2 +17.0 82 +24 +24 комфорт 1017.4 963.9 +27.7
15 17.09 Ю 2 24 км 10/10 1000 м
[]
+18.4 +17.3 93 +20 +20 1015.6 962.4
18 17.09 6000 м в посл. час гроза {дождь, туман} н/о +18.6 +17.8 95 +19 +19 1015.2 962.0 8
21 17.09 ЮЗ 4 24 км 10/10 300 м
[]
+18.3 +16.9 92 +19 +19 1015.6 962.3
00 18.09 З 2 24 км {гроза, дождь} 8/8 300 м
[Sc diur, vesp]
+13.8 +12.1 89 +13 +13 1017.2 963.6 +22.5 3
12 18.09 С 1 600 м туман н/о +7.2 +7.0 99 +7 +7 1021.9 967.5
15 18.09 СЗ 1 24 км 10/10 50 м
[]
+8.9 +8.7 99 +8 +8 1022.6 968.2
18 18.09 СВ 1 24 км {туман} 5/1 300 м
[Cu hum Ci]
+13.8 +8.3 69 +14 +24 1022.1 967.8 0.0
21 18.09 ЮВ 2 24 км 6/0
[]
+16.1 +7.6 57 +17 +19 1020.7 966.5
00 19.09 С 1 24 км 5/0
[Cc]
+10.3 +9.5 95 +11 +11 1021.0 966.5 +17.0
12 19.09 С 1 24 км в посл. час дождь 9/0
[Ac As]
+9.9 +9.4 97 +10 +10 1021.7 967.3 0.6

 

Местоположение метеостанции Chapleau A (Канада): широта 47.82 долгота -83.35 высота над уровнем моря 447 м.

В архиве по умолчанию представлена погода в Chapleau A за последнюю неделю. Архивные данные за месяц целиком и за предыдущие месяцы, начиная с января 2011 года, Вы можете получить, выбрав интересующий диапазон дат из раскрывающегося списка и нажав кнопку "Ввод!".

Внимание! Время в таблицах - всемирное. Для получения местного времени необходимо прибавить поправку, которая в Chapleau A равна -5 ч.

Смотрите также архив погоды в соседних городах и на ближайших метеорологических станциях:

Погода в Lake Superior Provincial Park (Канада) (103 км)
Погода в Wawa (Канада) (108 км)
Погода в Montreal River Radar (Канада) (120 км)
Погода в Timmins Climate (Канада) (167 км)
Погода в Timmins (Канада) (169 км)
Погода в Sault Ste Marie (Канада) (173 км)
Погода в Elliott Lake (Канада) (174 км)
Погода в Kapuskasing (Канада) (188 км)
Погода в Kapuskasing (Канада) (188 км)
Погода в Kapuskasing Airport (Канада) (190 км)

Пояснения к столбцам:

Ветер - указаны скорость ветра в м/с - средняя за 10 мин, порывы в срок и между сроками (в фигурных скобках) и направление, откуда дует ветер: С - северный, СВ - северо-восточный, В - восточный, ЮВ - юго-восточный, Ю - южный, ЮЗ - юго-западный, З - западный, СЗ - северо-западный.
Видимость - горизонтальная дальность видимости в метрах или километрах. При видимости от 1 до 10 км при отсутствии осадков обычно наблюдается дымка, при ухудшении видимости до 1 км и менее - туман. В сухую погоду видимость может ухудшаться дымом, пылью или мглою.
Явления - указаны атмосферные явления, наблюдавшиеся в срок или в последний час перед сроком; фигурными скобками обозначены явления, наблюдавшиеся между сроками (за 1-3 часа до срока); квадратными скобками обозначены град или гололедные отложения с указанием их диаметра в мм.
Облачность - указаны через наклонную черту общая и нижняя облачность в баллах и высота нижней границы облаков в метрах; квадратными скобками обозначены формы облаков: Ci - перистые, Cs - перисто-слоистые, Cc - перисто-кучевые, Ac - высококучевые, As - высокослоистые, Sc - слоисто-кучевые, Ns - слоисто-дождевые, Cu - кучевые, Cb - кучево-дождевые. Подробнее классификацию облаков см. в Атласе облаков (PDF).
T - Температура воздуха - температура, измеренная на высоте 2 м над землей.
Td - Температура точки росы - температура, при понижении до которой содержащийся в воздухе водяной пар достигнет насыщения.
f - Относительная влажность воздуха - влажноcть воздуха, измеренная на высоте 2 м над землей.
Te - Эффективная температура - температура, которую ощущает одетый по сезону человек в тени. Характеристика душности погоды. При расчете учитывается влияние влажности воздуха и скорости ветра на теплоощущения человека.
Tes - Эффективная температура на солнце - температура, которую ощущает человек, с поправкой на солнечный нагрев. Характеристика знойности погоды. Зависит от высоты солнца над горизонтом, облачности и скорости ветра. Ночью, в пасмурную погоду, а также при ветре 12 м/с и более поправка равна нулю.
P - Атмосферное давление - приведенное к уровню моря атмосферное давление.
Po - Атмосферное давление - измеренное на уровне метеостанции атмосферное давление.
Tmin - Минимальная температура - минимум температуры воздуха на высоте 2 м над землей.
Tmax - Максимальная температура - максимум температуры воздуха на высоте 2 м над землей.
R - Количество осадков - Количество выпавших осадков за период времени, мм. При наведении курсора мыши на число - период времени, за который выпало указанное количество осадков.
R24 - Количество осадков - Количество выпавших осадков за 24 часа, мм.
S - Снежный покров - Высота снежного покрова, см. При наведении курсора мыши на число - состояние снежного покрова и степень покрытия местности в баллах.